Total_Precipitation_Accumulation
0.01 0.06 0.13 0.20 0.41 0.28 0.03 0.00 0.00 0.00 0.00 0.00 0.00 0.00 0.00 0.00 0.02 0.12 0.04 0.01 0.01 0.03 0.15 0.18 0.25 0.24 0.19 0.16 0.22 0.30 0.39 0.50 0.52 0.48 0.42 0.25 0.21 0.18 0.18 0.18 0.20 0.21 0.17 0.20 0.22 0.28 0.25 0.20 0.14
0.03 0.09 0.23 0.45 0.51 0.11 0.00 0.00 0.00 0.00 0.00 0.00 0.00 0.00 0.00 0.00 0.00 0.01 0.03 0.05 0.00 0.02 0.09 0.16 0.19 0.24 0.22 0.26 0.37 0.41 0.43 0.48 0.47 0.38 0.29 0.22 0.20 0.19 0.20 0.25 0.26 0.22 0.18 0.19 0.22 0.31 0.26 0.18 0.13
0.04 0.11 0.27 0.48 0.22 0.03 0.00 0.00 0.00 0.00 0.00 0.00 0.00 0.00 0.00 0.00 0.00 0.00 0.02 0.02 0.01 0.03 0.08 0.14 0.17 0.21 0.23 0.29 0.37 0.42 0.42 0.39 0.39 0.37 0.27 0.21 0.19 0.18 0.21 0.24 0.25 0.21 0.13 0.12 0.17 0.21 0.18 0.17 0.11
0.07 0.19 0.33 0.28 0.04 0.00 0.00 0.00 0.00 0.00 0.00 0.00 0.00 0.00 0.00 0.00 0.00 0.00 0.00 0.00 0.02 0.05 0.09 0.09 0.19 0.20 0.21 0.34 0.40 0.40 0.33 0.27 0.32 0.36 0.30 0.24 0.17 0.18 0.23 0.21 0.17 0.12 0.08 0.09 0.14 0.17 0.15 0.11 0.06
0.10 0.30 0.43 0.16 0.01 0.00 0.00 0.00 0.00 0.00 0.00 0.00 0.00 0.00 0.01 0.00 0.00 0.00 0.00 0.01 0.03 0.07 0.11 0.09 0.21 0.18 0.19 0.32 0.40 0.38 0.38 0.33 0.33 0.37 0.33 0.30 0.22 0.19 0.21 0.16 0.10 0.05 0.04 0.10 0.22 0.23 0.14 0.08 0.06
0.19 0.39 0.69 0.30 0.01 0.00 0.00 0.00 0.00 0.00 0.00 0.00 0.00 0.00 0.01 0.00 0.00 0.00 0.00 0.01 0.02 0.02 0.06 0.07 0.14 0.17 0.19 0.28 0.31 0.25 0.30 0.39 0.39 0.32 0.35 0.56 0.38 0.24 0.15 0.10 0.03 0.01 0.02 0.07 0.16 0.20 0.13 0.10 0.13
0.35 0.58 0.59 0.22 0.01 0.00 0.00 0.00 0.00 0.00 0.00 0.00 0.00 0.00 0.00 0.01 0.00 0.00 0.01 0.01 0.01 0.01 0.01 0.02 0.05 0.08 0.11 0.20 0.26 0.25 0.26 0.33 0.38 0.30 0.34 0.48 0.30 0.14 0.09 0.05 0.01 0.01 0.01 0.03 0.07 0.12 0.14 0.13 0.16
0.16 0.34 0.30 0.09 0.01 0.00 0.00 0.00 0.00 0.00 0.00 0.00 0.00 0.00 0.01 0.01 0.00 0.00 0.01 0.02 0.03 0.03 0.04 0.02 0.03 0.09 0.15 0.14 0.16 0.25 0.27 0.23 0.29 0.27 0.30 0.30 0.14 0.07 0.04 0.02 0.01 0.01 0.02 0.03 0.06 0.10 0.11 0.10 0.11
0.15 0.24 0.21 0.12 0.03 0.01 0.00 0.00 0.00 0.00 0.00 0.00 0.00 0.00 0.00 0.00 0.00 0.00 0.01 0.03 0.05 0.06 0.10 0.08 0.03 0.03 0.12 0.19 0.12 0.24 0.26 0.20 0.17 0.18 0.20 0.17 0.08 0.03 0.02 0.02 0.03 0.02 0.03 0.04 0.07 0.10 0.07 0.05 0.05
0.23 0.25 0.19 0.15 0.07 0.02 0.01 0.00 0.00 0.00 0.00 0.00 0.00 0.00 0.00 0.00 0.00 0.00 0.01 0.02 0.02 0.03 0.04 0.06 0.05 0.03 0.05 0.14 0.25 0.44 0.30 0.15 0.11 0.08 0.05 0.08 0.05 0.04 0.01 0.02 0.05 0.05 0.03 0.04 0.08 0.09 0.04 0.01 0.00
0.26 0.19 0.16 0.17 0.05 0.02 0.01 0.00 0.00 0.00 0.00 0.00 0.00 0.00 0.00 0.00 0.00 0.00 0.00 0.01 0.00 0.00 0.02 0.04 0.04 0.02 0.03 0.16 0.23 0.29 0.28 0.20 0.16 0.07 0.04 0.06 0.04 0.01 0.00 0.01 0.04 0.03 0.02 0.01 0.03 0.03 0.01 0.00 0.00
0.25 0.14 0.09 0.10 0.04 0.02 0.01 0.01 0.00 0.00 0.00 0.00 0.00 0.00 0.00 0.00 0.00 0.00 0.00 0.01 0.00 0.00 0.01 0.02 0.03 0.03 0.02 0.02 0.05 0.09 0.07 0.07 0.10 0.06 0.04 0.04 0.02 0.01 0.01 0.03 0.03 0.04 0.03 0.03 0.05 0.04 0.03 0.01 0.00
0.18 0.09 0.05 0.04 0.04 0.03 0.02 0.01 0.00 0.00 0.00 0.00 0.00 0.00 0.00 0.00 0.00 0.00 0.00 0.01 0.01 0.01 0.02 0.02 0.02 0.04 0.03 0.02 0.02 0.02 0.04 0.05 0.05 0.04 0.04 0.03 0.02 0.02 0.02 0.06 0.08 0.10 0.09 0.11 0.11 0.07 0.05 0.03 0.01
0.12 0.09 0.07 0.06 0.06 0.05 0.03 0.01 0.01 0.01 0.01 0.00 0.00 0.00 0.00 0.00 0.00 0.00 0.00 0.01 0.02 0.03 0.04 0.05 0.05 0.05 0.06 0.05 0.02 0.01 0.01 0.03 0.04 0.03 0.04 0.04 0.04 0.04 0.05 0.09 0.12 0.19 0.19 0.25 0.24 0.11 0.07 0.04 0.01
0.13 0.12 0.08 0.06 0.05 0.05 0.03 0.01 0.01 0.02 0.02 0.02 0.01 0.01 0.00 0.00 0.00 0.00 0.00 0.02 0.05 0.07 0.10 0.12 0.13 0.13 0.12 0.11 0.07 0.04 0.02 0.02 0.02 0.03 0.03 0.04 0.05 0.07 0.08 0.14 0.16 0.19 0.19 0.23 0.44 0.33 0.08 0.02 0.00
0.19 0.13 0.07 0.05 0.05 0.05 0.04 0.02 0.03 0.05 0.05 0.05 0.04 0.02 0.01 0.00 0.00 0.00 0.00 0.02 0.07 0.14 0.20 0.26 0.19 0.20 0.21 0.19 0.16 0.13 0.09 0.07 0.05 0.05 0.07 0.08 0.09 0.11 0.14 0.18 0.16 0.20 0.20 0.21 0.32 0.42 0.19 0.04 0.01
0.14 0.10 0.05 0.05 0.06 0.05 0.06 0.04 0.06 0.10 0.09 0.07 0.06 0.04 0.03 0.01 0.00 0.00 0.00 0.01 0.08 0.19 0.31 0.33 0.25 0.26 0.32 0.34 0.33 0.28 0.21 0.16 0.12 0.12 0.15 0.19 0.20 0.18 0.17 0.20 0.17 0.17 0.18 0.27 0.28 0.41 0.41 0.22 0.08
0.27 0.18 0.11 0.08 0.08 0.07 0.09 0.08 0.09 0.12 0.11 0.09 0.07 0.06 0.04 0.02 0.01 0.01 0.00 0.01 0.05 0.17 0.28 0.37 0.45 0.54 0.59 0.60 0.55 0.46 0.35 0.28 0.24 0.23 0.29 0.35 0.35 0.30 0.26 0.28 0.24 0.19 0.20 0.29 0.30 0.41 0.46 0.30 0.15
0.23 0.20 0.15 0.10 0.11 0.08 0.08 0.08 0.09 0.10 0.12 0.10 0.08 0.08 0.06 0.04 0.02 0.01 0.01 0.01 0.05 0.15 0.25 0.39 0.70 1.05 1.15 0.96 0.80 0.73 0.68 0.56 0.45 0.41 0.46 0.52 0.49 0.43 0.40 0.39 0.34 0.29 0.29 0.36 0.40 0.57 0.89 0.51 0.26
0.23 0.24 0.21 0.15 0.11 0.08 0.06 0.05 0.05 0.06 0.08 0.09 0.08 0.08 0.07 0.04 0.02 0.01 0.01 0.03 0.07 0.21 0.35 0.49 0.70 1.05 1.13 1.06 0.99 0.93 0.89 0.75 0.64 0.63 0.61 0.65 0.62 0.66 0.62 0.54 0.49 0.43 0.48 0.56 0.56 0.58 0.84 0.59 0.36
0.27 0.28 0.25 0.19 0.12 0.09 0.05 0.03 0.02 0.03 0.03 0.04 0.05 0.06 0.06 0.04 0.02 0.02 0.02 0.03 0.06 0.15 0.26 0.41 0.56 0.75 0.88 0.93 0.95 1.00 0.99 0.93 0.90 0.87 0.81 0.79 0.77 0.82 0.88 0.76 0.69 0.61 0.57 0.65 0.69 0.66 0.68 0.71 0.52
0.21 0.15 0.11 0.09 0.09 0.08 0.06 0.06 0.02 0.01 0.02 0.02 0.03 0.04 0.05 0.04 0.03 0.03 0.03 0.03 0.04 0.08 0.15 0.27 0.42 0.58 0.64 0.67 0.75 0.91 0.99 0.98 0.94 0.89 0.86 0.88 0.89 0.92 1.06 1.04 0.98 0.86 0.83 0.87 0.88 0.82 0.81 0.88 0.77
0.10 0.06 0.06 0.07 0.07 0.07 0.06 0.06 0.02 0.01 0.01 0.02 0.02 0.03 0.04 0.04 0.04 0.04 0.04 0.05 0.06 0.07 0.10 0.17 0.28 0.37 0.48 0.51 0.55 0.67 0.71 0.76 0.85 0.77 0.75 0.86 0.92 0.95 1.10 1.22 1.18 1.05 1.00 1.02 1.10 1.04 0.99 0.87 0.73
0.05 0.05 0.05 0.05 0.06 0.06 0.04 0.05 0.03 0.01 0.02 0.02 0.02 0.02 0.03 0.04 0.06 0.08 0.08 0.11 0.13 0.13 0.15 0.20 0.24 0.27 0.31 0.31 0.32 0.35 0.41 0.53 0.83 0.88 0.86 1.00 1.05 0.96 0.91 1.07 1.18 1.08 1.07 1.12 1.18 1.17 1.10 1.03 0.95
0.03 0.07 0.10 0.10 0.10 0.06 0.03 0.05 0.04 0.03 0.03 0.03 0.03 0.03 0.04 0.07 0.09 0.13 0.15 0.17 0.17 0.16 0.18 0.21 0.25 0.27 0.25 0.22 0.20 0.21 0.27 0.32 0.61 0.86 0.84 0.81 0.89 0.90 0.87 0.88 0.96 0.96 1.01 1.10 1.23 1.16 1.02 0.96 1.01
0.04 0.08 0.14 0.15 0.12 0.09 0.06 0.08 0.06 0.04 0.04 0.04 0.05 0.06 0.08 0.10 0.14 0.19 0.26 0.27 0.26 0.25 0.22 0.21 0.22 0.25 0.23 0.18 0.13 0.15 0.19 0.20 0.27 0.43 0.52 0.55 0.58 0.68 0.68 0.68 0.77 0.86 0.97 1.04 1.07 1.00 0.96 0.91 0.89
0.06 0.09 0.11 0.15 0.11 0.09 0.08 0.10 0.09 0.05 0.07 0.08 0.08 0.11 0.15 0.19 0.26 0.33 0.38 0.38 0.35 0.32 0.25 0.22 0.23 0.26 0.25 0.22 0.20 0.17 0.17 0.21 0.27 0.28 0.35 0.51 0.53 0.52 0.50 0.51 0.59 0.72 0.83 0.92 0.98 0.96 0.93 0.89 0.86
0.05 0.08 0.13 0.22 0.23 0.18 0.15 0.20 0.21 0.15 0.14 0.15 0.16 0.19 0.26 0.32 0.37 0.43 0.48 0.46 0.41 0.32 0.23 0.19 0.18 0.23 0.34 0.45 0.40 0.32 0.30 0.34 0.55 0.59 0.40 0.40 0.49 0.49 0.45 0.46 0.52 0.62 0.73 0.84 0.86 0.89 0.91 0.89 0.87
0.13 0.19 0.23 0.29 0.29 0.33 0.38 0.41 0.34 0.29 0.27 0.28 0.29 0.30 0.37 0.44 0.46 0.49 0.51 0.52 0.47 0.34 0.22 0.18 0.16 0.20 0.25 0.28 0.28 0.29 0.37 0.45 0.65 0.84 0.74 0.51 0.42 0.41 0.40 0.38 0.42 0.49 0.56 0.67 0.76 0.81 0.83 0.82 0.86
0.22 0.32 0.45 0.61 0.57 0.50 0.55 0.53 0.40 0.30 0.30 0.31 0.32 0.28 0.30 0.36 0.39 0.44 0.46 0.43 0.38 0.28 0.19 0.15 0.14 0.18 0.24 0.23 0.21 0.22 0.29 0.40 0.45 0.47 0.51 0.41 0.27 0.21 0.24 0.26 0.28 0.34 0.44 0.48 0.52 0.59 0.63 0.65 0.68